Flag for U.S.A. Weather past 2 weeks in Cleveland, Ohio, U.S.A.

Now
18 °F

Light snow. Overcast.


Feels Like: 4 °F
Forecast: 13 / 21 °F
Wind: 14 mph from North

Location: Cleveland-Hopkins International Airport

Current Time: Jan 27, 2015 at 9:23:39 AM

Latest Report: Jan 27, 2015 at 8:51 AM


Visibility: 1 mi

Pressure: 30.08 "Hg

Humidity: 84%

Dew point: 14 °F

Location of ClevelandLocation

Historic Weather in Cleveland — Graph

°F

Cleveland temperature yesterday

Maximum temperature yesterday: 21 °F (at 8:58 AM)
Minimum temperature yesterday: 19 °F (at 1:57 AM)
Average temperature yesterday: 20 °F

Past Weeks' High & Low Weather Summary

 TemperatureHumidityPressure
High44 °F (Jan 17, 6:51 PM)96% (Jan 21, 12:51 PM)30.75 "Hg (Jan 21, 12:51 PM)
Low-2 °F (Jan 14, 2:51 AM)51% (Jan 17, 9:51 PM)29.62 "Hg (Jan 24, 2:51 PM)
Average25 °F79%30.10 "Hg
* Reported Jan 12 7:55 AM — Jan 27 7:51 AM, Cleveland, Weather by CustomWeather, © 2014

Note: Actual official high and low records may vary slightly from our data, if they occured in-between our weather recording intervals... More about our weather records

Advertising

Cleveland weather history for previous 24 hours

 ConditionsComfort  
Time TempWeatherWind HumidityBarometerVisibility
7:51 AM
Jan 27
18 °FLight snow. Mostly cloudy.9 mph80%30.06 "Hg6 mi
6:51 AM18 °FLight snow. Overcast.14 mph84%30.04 "Hg5 mi
5:51 AM18 °FLight snow. Overcast.10 mph84%30.02 "Hg6 mi
4:56 AM18 °FLight snow. Mostly cloudy.12 mph84%29.96 "Hg4 mi
3:51 AM19 °FLight snow. Overcast.12 mph85%29.99 "Hg3 mi
2:51 AM20 °FLight snow. Overcast.9 mph82%29.99 "Hg7 mi
1:51 AM20 °FLight snow. Low clouds.7 mph85%29.97 "Hg6 mi
12:51 AM20 °FLight snow. Overcast.8 mph85%29.98 "Hg7 mi
11:51 PM
Jan 26
20 °FLight snow. Overcast.12 mph85%29.98 "Hg4 mi
10:51 PM20 °FLight snow. Mostly cloudy.8 mph85%29.98 "Hg2 mi
9:51 PM20 °FLight snow. Overcast.8 mph82%29.98 "Hg5 mi
8:51 PM20 °FLight snow. Overcast.9 mph78%29.98 "Hg5 mi
7:51 PM20 °FLight snow. Overcast.7 mph82%29.98 "Hg6 mi
6:51 PM20 °FLight snow. Overcast.9 mph82%29.97 "Hg5 mi
5:59 PM20 °FLight snow. Overcast.13 mph82%29.92 "Hg4 mi
4:51 PM20 °FLight snow. Overcast.15 mph82%29.93 "Hg3 mi
3:51 PM20 °FLight snow. Overcast.15 mph82%29.92 "Hg7 mi
2:51 PM20 °FOvercast.16 mph85%29.90 "Hg9 mi
1:51 PM21 °FLow clouds.15 mph85%29.89 "Hg10 mi
12:51 PM21 °FLow clouds.17 mph85%29.89 "Hg10 mi
12:03 PM21 °FOvercast.18 mph85%29.87 "Hg10 mi
11:51 AM21 °FLow clouds.20 mph85%29.91 "Hg10 mi
11:00 AM21 °FOvercast.20 mph81%29.88 "Hg10 mi
9:51 AM21 °FLow clouds.17 mph88%29.90 "Hg10 mi
Weather by CustomWeather, © 2014

See weather overviewHow to use our weather pages